• In Italy
  • List of Countries
  • For 7 days
  • Water Temperature
  • Satellite Maps
  • Weather Map
  • Weather Widgets
  • user-avatar
    Login

    Hourly Weather La Rioja

    Today, 21 July, Friday

    Time Temperature Precipitation Wind Pressure Humidity
    00:00 +13°C° 0 mm 1 mps 717 mmHg 27%
    01:00 +12°C° 0 mm 1 mps 717 mmHg 28%
    02:00 +12°C° 0 mm 1 mps 717 mmHg 29%
    03:00 +11°C° 0 mm 1 mps 717 mmHg 31%
    04:00 +11°C° 0 mm 1 mps 717 mmHg 32%
    05:00 +10°C° 0 mm 1 mps 717 mmHg 34%
    06:00 +11°C° 0 mm 1 mps 717 mmHg 32%
    07:00 +11°C° 0 mm 1 mps 718 mmHg 31%
    08:00 +12°C° 0 mm 1 mps 718 mmHg 29%
    09:00 +14°C° 0 mm 1 mps 719 mmHg 25%
    10:00 +18°C° 0 mm 1 mps 719 mmHg 21%
    11:00 +21°C° 0 mm 1 mps 719 mmHg 16%
    12:00 +21°C° 0 mm 2 mps 719 mmHg 16%
    13:00 +23°C° 0 mm 2 mps 718 mmHg 15%
    14:00 +24°C° 0 mm 2 mps 718 mmHg 15%
    15:00 +23°C° 0 mm 2 mps 717 mmHg 15%
    16:00 +23°C° 0 mm 2 mps 717 mmHg 16%
    17:00 +23°C° 0 mm 2 mps 716 mmHg 17%
    18:00 +20°C° 0 mm 2 mps 716 mmHg 21%
    19:00 +17°C° 0 mm 2 mps 716 mmHg 24%
    20:00 +15°C° 0 mm 1 mps 715 mmHg 28%
    21:00 +15°C° 0 mm 1 mps 715 mmHg 29%
    22:00 +14°C° 0 mm 1 mps 715 mmHg 30%
    23:00 +13°C° 0 mm 1 mps 715 mmHg 31%

    Tomorrow, 22 July, Saturday

    Time Temperature Precipitation Wind Pressure Humidity
    00:00 +13°C° 0 mm 1 mps 714 mmHg 32%
    01:00 +13°C° 0 mm 1 mps 714 mmHg 33%
    02:00 +12°C° 0 mm 1 mps 713 mmHg 34%
    03:00 +12°C° 0 mm 2 mps 713 mmHg 35%
    04:00 +12°C° 0 mm 2 mps 712 mmHg 36%
    05:00 +10°C° 0 mm 2 mps 711 mmHg 37%
    06:00 +12°C° 0 mm 2 mps 711 mmHg 37%
    07:00 +12°C° 0 mm 2 mps 711 mmHg 36%
    08:00 +12°C° 0 mm 2 mps 711 mmHg 36%
    09:00 +15°C° 0 mm 2 mps 711 mmHg 31%
    10:00 +18°C° 0 mm 2 mps 711 mmHg 27%
    11:00 +20°C° 0 mm 2 mps 711 mmHg 22%
    12:00 +21°C° 0 mm 2 mps 710 mmHg 21%
    13:00 +24°C° 0 mm 2 mps 709 mmHg 19%
    14:00 +25°C° 0 mm 2 mps 708 mmHg 18%
    15:00 +25°C° 0 mm 2 mps 708 mmHg 19%
    16:00 +24°C° 0 mm 2 mps 707 mmHg 19%
    17:00 +24°C° 0 mm 2 mps 707 mmHg 20%
    18:00 +21°C° 0 mm 2 mps 707 mmHg 23%
    19:00 +19°C° 0 mm 2 mps 707 mmHg 26%
    20:00 +18°C° 0 mm 1 mps 707 mmHg 29%
    21:00 +18°C° 0 mm 1 mps 707 mmHg 30%
    22:00 +17°C° 0 mm 2 mps 708 mmHg 32%
    23:00 +16°C° 0 mm 2 mps 708 mmHg 33%

    Day after tomorrow, 23 July, Sunday

    Time Temperature Precipitation Wind Pressure Humidity
    00:00 +16°C° 0 mm 2 mps 708 mmHg 38%
    01:00 +15°C° 0 mm 2 mps 708 mmHg 42%
    02:00 +15°C° 0 mm 2 mps 708 mmHg 46%
    03:00 +15°C° 0 mm 2 mps 708 mmHg 48%
    04:00 +14°C° 0 mm 2 mps 707 mmHg 50%
    05:00 +14°C° 0 mm 2 mps 707 mmHg 52%
    06:00 +14°C° 0 mm 2 mps 708 mmHg 51%
    07:00 +14°C° 0 mm 2 mps 709 mmHg 51%
    08:00 +15°C° 0 mm 2 mps 709 mmHg 50%
    09:00 +18°C° 0 mm 2 mps 710 mmHg 43%
    10:00 +21°C° 0 mm 2 mps 710 mmHg 37%
    11:00 +24°C° 0 mm 2 mps 711 mmHg 30%
    12:00 +25°C° 0 mm 2 mps 710 mmHg 28%
    13:00 +26°C° 0 mm 3 mps 710 mmHg 26%
    14:00 +27°C° 0 mm 3 mps 709 mmHg 24%
    15:00 +27°C° 0 mm 3 mps 709 mmHg 25%
    16:00 +26°C° 0 mm 3 mps 709 mmHg 26%
    17:00 +26°C° 0 mm 3 mps 709 mmHg 27%
    18:00 +24°C° 0 mm 2 mps 710 mmHg 33%
    19:00 +21°C° 0 mm 2 mps 711 mmHg 39%
    20:00 +18°C° 0 mm 2 mps 712 mmHg 45%
    21:00 +18°C° 0 mm 2 mps 712 mmHg 46%
    22:00 +17°C° 0 mm 3 mps 713 mmHg 47%
    23:00 +17°C° 0 mm 4 mps 714 mmHg 48%

    24 July, Monday

    Time Temperature Precipitation Wind Pressure Humidity
    00:00 +16°C° 0 mm 3 mps 714 mmHg 52%
    01:00 +16°C° 0 mm 3 mps 714 mmHg 55%
    02:00 +14°C° 0 mm 3 mps 714 mmHg 59%
    03:00 +13°C° 0 mm 3 mps 714 mmHg 60%
    04:00 +13°C° 0 mm 3 mps 714 mmHg 61%
    05:00 +12°C° 0 mm 3 mps 714 mmHg 62%
    06:00 +13°C° 0 mm 3 mps 714 mmHg 61%
    07:00 +13°C° 0 mm 3 mps 715 mmHg 60%
    08:00 +13°C° 0 mm 3 mps 715 mmHg 58%
    09:00 +16°C° 0 mm 3 mps 715 mmHg 52%
    10:00 +17°C° 0 mm 3 mps 715 mmHg 45%
    11:00 +19°C° 0 mm 3 mps 716 mmHg 39%
    12:00 +20°C° 0 mm 3 mps 715 mmHg 38%
    13:00 +21°C° 0 mm 3 mps 714 mmHg 37%
    14:00 +22°C° 0 mm 3 mps 713 mmHg 36%
    15:00 +22°C° 0 mm 3 mps 713 mmHg 38%
    16:00 +23°C° 0 mm 2 mps 713 mmHg 39%
    17:00 +21°C° 0 mm 2 mps 713 mmHg 40%
    18:00 +20°C° 0 mm 2 mps 714 mmHg 45%
    19:00 +18°C° 0 mm 2 mps 714 mmHg 50%
    20:00 +16°C° 0 mm 2 mps 715 mmHg 55%
    21:00 +16°C° 0 mm 2 mps 715 mmHg 55%
    22:00 +15°C° 0 mm 2 mps 716 mmHg 55%
    23:00 +15°C° 0 mm 2 mps 716 mmHg 55%

    25 July, Tuesday

    Time Temperature Precipitation Wind Pressure Humidity
    00:00 +15°C° 0 mm 2 mps 716 mmHg 55%
    01:00 +14°C° 0 mm 2 mps 716 mmHg 56%
    02:00 +14°C° 0 mm 2 mps 715 mmHg 57%
    03:00 +14°C° 0 mm 2 mps 715 mmHg 58%
    04:00 +13°C° 0 mm 2 mps 715 mmHg 59%
    05:00 +12°C° 0 mm 3 mps 715 mmHg 60%
    06:00 +12°C° 0 mm 3 mps 716 mmHg 60%
    07:00 +14°C° 0 mm 2 mps 716 mmHg 60%
    08:00 +14°C° 0 mm 2 mps 716 mmHg 60%
    09:00 +16°C° 0 mm 2 mps 717 mmHg 56%
    10:00 +17°C° 0 mm 2 mps 717 mmHg 52%
    11:00 +19°C° 0 mm 2 mps 717 mmHg 47%
    12:00 +20°C° 0 mm 2 mps 716 mmHg 46%
    13:00 +21°C° 0 mm 2 mps 715 mmHg 45%
    14:00 +23°C° 0 mm 2 mps 715 mmHg 44%
    15:00 +23°C° 0 mm 2 mps 715 mmHg 45%
    16:00 +21°C° 0 mm 2 mps 714 mmHg 46%
    17:00 +21°C° 0 mm 2 mps 714 mmHg 47%
    18:00 +20°C° 0 mm 2 mps 715 mmHg 53%
    19:00 +19°C° 0 mm 1 mps 715 mmHg 59%
    20:00 +18°C° 0 mm 1 mps 715 mmHg 65%
    21:00 +16°C° 0 mm 1 mps 715 mmHg 67%
    22:00 +16°C° 0 mm 1 mps 716 mmHg 69%
    23:00 +16°C° 0 mm 1 mps 716 mmHg 71%

    26 July, Wednesday

    Time Temperature Precipitation Wind Pressure Humidity
    00:00 +15°C° 0 mm 1 mps 715 mmHg 72%
    01:00 +15°C° 0 mm 1 mps 715 mmHg 74%
    02:00 +15°C° 0 mm 1 mps 714 mmHg 75%
    03:00 +15°C° 0 mm 1 mps 714 mmHg 76%
    04:00 +14°C° 0 mm 1 mps 713 mmHg 77%
    05:00 +14°C° 0 mm 1 mps 713 mmHg 78%
    06:00 +14°C° 0 mm 1 mps 713 mmHg 77%
    07:00 +15°C° 0 mm 1 mps 714 mmHg 76%
    08:00 +15°C° 0 mm 1 mps 714 mmHg 74%
    09:00 +18°C° 0 mm 1 mps 714 mmHg 70%
    10:00 +19°C° 0 mm 2 mps 713 mmHg 65%
    11:00 +21°C° 0 mm 2 mps 713 mmHg 60%
    12:00 +23°C° 0 mm 2 mps 712 mmHg 56%
    13:00 +24°C° 0 mm 2 mps 712 mmHg 51%
    14:00 +25°C° 0 mm 2 mps 711 mmHg 47%
    15:00 +25°C° 0 mm 2 mps 711 mmHg 47%
    16:00 +25°C° 0 mm 2 mps 710 mmHg 47%
    17:00 +25°C° 0 mm 2 mps 710 mmHg 48%
    18:00 +24°C° 0 mm 2 mps 711 mmHg 54%
    19:00 +22°C° 0 mm 1 mps 711 mmHg 60%
    20:00 +20°C° 0 mm 1 mps 711 mmHg 66%
    21:00 +20°C° 0 mm 1 mps 711 mmHg 68%
    22:00 +20°C° 0 mm 1 mps 711 mmHg 70%
    23:00 +19°C° 0 mm 1 mps 711 mmHg 71%
    Show more